TIANMU-1 04

Last updated on Sun Dec 14 2025 00:02:24 GMT+0000 (Coordinated Universal Time)

1 55974U 23039B 25347.25548611 .00023894 00000+0 57486-3 0 9998 2 55974 97.5038 149.1121 0005047 54.4440 305.7276 15.41283948152148
UTC large
Height (km)
Speed (km/s)
/
Latitude / Longitude
Inclination (degrees)
Orbital Period (minutes)
Azimuth
Elevation
Range (km)
Doppler Factor

Next 0 passes for location: London (51.5072 / 0.1276)

Sorry there are no passes over London.